TimeCST,TemperatureF,Dew PointF,Humidity,Sea Level PressureIn,VisibilityMPH,Wind Direction,Wind SpeedMPH,Gust SpeedMPH,PrecipitationIn,Events,Conditions,WindDirDegrees,DateUTC
12:15 AM,49.8,42.8,77,30.11,5.0,SE,9.2,-,0.07,Rain,Rain,140,2012-11-19 06:15:00
12:35 AM,49.1,43.2,80,30.10,10.0,SE,9.2,-,0.07,Rain,Light Rain,140,2012-11-19 06:35:00
12:55 AM,49.8,42.3,75,30.10,10.0,SE,8.1,-,0.07,,Overcast,140,2012-11-19 06:55:00
1:15 AM,50.0,41.9,74,30.08,10.0,SE,11.5,-,N/A,,Overcast,140,2012-11-19 07:15:00
1:35 AM,50.2,41.7,73,30.08,10.0,SE,10.4,-,N/A,,Overcast,140,2012-11-19 07:35:00
1:55 AM,50.2,41.4,72,30.08,10.0,SE,11.5,-,N/A,,Overcast,140,2012-11-19 07:55:00
2:35 AM,50.0,41.0,71,30.07,10.0,SSE,10.4,-,N/A,,Overcast,150,2012-11-19 08:35:00
2:55 AM,50.2,40.6,70,30.08,10.0,SSE,10.4,-,N/A,,Overcast,150,2012-11-19 08:55:00
3:15 AM,49.6,41.0,72,30.07,10.0,SSE,8.1,-,N/A,,Overcast,150,2012-11-19 09:15:00
3:55 AM,46.9,39.6,76,30.06,10.0,SE,9.2,-,N/A,,Scattered Clouds,140,2012-11-19 09:55:00
4:15 AM,45.5,38.5,76,30.06,10.0,SE,6.9,-,N/A,,Clear,140,2012-11-19 10:15:00
4:35 AM,44.1,38.1,80,30.07,10.0,SSE,8.1,-,N/A,,Clear,150,2012-11-19 10:35:00
4:55 AM,44.8,37.6,76,30.06,10.0,SSE,9.2,-,N/A,,Clear,150,2012-11-19 10:55:00
5:15 AM,43.7,36.7,76,30.06,10.0,SSE,8.1,-,N/A,,Clear,150,2012-11-19 11:15:00
5:35 AM,42.6,36.5,79,30.06,10.0,SSE,8.1,-,N/A,,Clear,150,2012-11-19 11:35:00
5:55 AM,42.8,36.5,78,30.06,10.0,SE,8.1,-,N/A,,Clear,140,2012-11-19 11:55:00
6:15 AM,42.8,36.3,78,30.06,10.0,SSE,9.2,-,N/A,,Clear,150,2012-11-19 12:15:00
6:35 AM,42.8,36.3,78,30.05,10.0,SSE,8.1,-,N/A,,Clear,150,2012-11-19 12:35:00
6:55 AM,44.4,36.1,73,30.05,10.0,SSE,9.2,-,N/A,,Clear,160,2012-11-19 12:55:00
7:35 AM,43.3,36.5,77,30.05,10.0,SSE,10.4,-,N/A,,Clear,160,2012-11-19 13:35:00
7:55 AM,44.4,37.0,75,30.05,10.0,South,8.1,-,N/A,,Clear,170,2012-11-19 13:55:00
8:15 AM,45.7,37.6,73,30.06,10.0,SSE,8.1,-,N/A,,Clear,160,2012-11-19 14:15:00
8:35 AM,47.5,39.0,72,30.06,10.0,SSE,9.2,-,N/A,,Clear,160,2012-11-19 14:35:00
8:55 AM,49.3,40.5,72,30.06,10.0,South,11.5,-,N/A,,Clear,170,2012-11-19 14:55:00
9:15 AM,50.9,41.0,69,30.05,10.0,South,13.8,-,N/A,,Clear,180,2012-11-19 15:15:00
9:35 AM,52.5,42.8,70,30.05,10.0,South,16.1,-,N/A,,Clear,190,2012-11-19 15:35:00
9:55 AM,53.8,43.7,69,30.05,10.0,South,17.3,-,N/A,,Clear,190,2012-11-19 15:55:00
10:15 AM,55.4,44.8,67,30.05,10.0,SSW,15.0,-,N/A,,Clear,200,2012-11-19 16:15:00
10:35 AM,56.3,44.8,65,30.06,10.0,SSW,15.0,-,N/A,,Clear,200,2012-11-19 16:35:00
10:55 AM,57.2,45.0,64,30.05,10.0,SSW,12.7,-,N/A,,Clear,210,2012-11-19 16:55:00
11:15 AM,57.9,45.5,63,30.04,10.0,SSW,12.7,-,N/A,,Clear,200,2012-11-19 17:15:00
11:35 AM,58.5,45.5,62,30.04,10.0,SSW,16.1,-,N/A,,Clear,200,2012-11-19 17:35:00
11:55 AM,59.0,45.3,60,30.03,10.0,SSW,16.1,-,N/A,,Clear,200,2012-11-19 17:55:00
12:15 PM,60.1,45.3,58,30.03,10.0,SSW,12.7,-,N/A,,Clear,200,2012-11-19 18:15:00
12:35 PM,60.6,45.0,56,30.03,10.0,SW,11.5,-,N/A,,Clear,220,2012-11-19 18:35:00
12:55 PM,61.0,45.3,56,30.02,10.0,SSW,11.5,-,N/A,,Clear,210,2012-11-19 18:55:00
1:15 PM,62.1,45.5,55,30.01,10.0,South,11.5,-,N/A,,Clear,180,2012-11-19 19:15:00
1:35 PM,62.2,45.3,54,30.01,10.0,SSW,12.7,18.4,N/A,,Clear,210,2012-11-19 19:35:00
1:55 PM,62.6,45.0,52,30.01,10.0,South,9.2,-,N/A,,Clear,190,2012-11-19 19:55:00
2:15 PM,63.1,44.8,51,30.00,10.0,SW,10.4,-,N/A,,Clear,220,2012-11-19 20:15:00
2:35 PM,63.3,44.8,51,30.00,10.0,SW,10.4,-,N/A,,Clear,220,2012-11-19 20:35:00
2:55 PM,62.4,44.6,52,30.00,10.0,SSW,8.1,-,N/A,,Clear,210,2012-11-19 20:55:00
3:15 PM,62.8,45.1,53,30.00,10.0,SSW,9.2,-,N/A,,Clear,200,2012-11-19 21:15:00
3:35 PM,62.8,45.0,52,30.01,10.0,WSW,6.9,-,N/A,,Clear,240,2012-11-19 21:35:00
3:55 PM,62.1,45.0,53,30.02,10.0,SW,8.1,-,N/A,,Clear,230,2012-11-19 21:55:00
4:15 PM,60.3,45.5,58,30.02,10.0,SW,6.9,-,N/A,,Clear,220,2012-11-19 22:15:00
4:35 PM,57.6,45.7,65,30.02,10.0,SW,6.9,-,N/A,,Clear,230,2012-11-19 22:35:00
4:55 PM,55.6,45.1,68,30.02,10.0,SSW,5.8,-,N/A,,Clear,210,2012-11-19 22:55:00
5:15 PM,52.3,43.9,73,30.02,10.0,SW,6.9,-,N/A,,Clear,220,2012-11-19 23:15:00
5:35 PM,54.5,44.2,68,30.03,10.0,SW,6.9,-,N/A,,Clear,230,2012-11-19 23:35:00
5:55 PM,50.0,42.1,74,30.03,10.0,SSW,5.8,-,N/A,,Clear,210,2012-11-19 23:55:00
6:15 PM,51.6,42.8,72,30.04,10.0,SW,8.1,-,N/A,,Clear,230,2012-11-20 00:15:00
6:35 PM,49.3,42.3,77,30.04,10.0,West,10.4,-,N/A,,Clear,260,2012-11-20 00:35:00
6:55 PM,48.2,40.6,75,30.05,10.0,West,10.4,-,N/A,,Clear,280,2012-11-20 00:55:00
7:15 PM,46.6,39.6,77,30.05,10.0,WNW,6.9,-,N/A,,Clear,290,2012-11-20 01:15:00
7:55 PM,45.5,38.5,76,30.06,10.0,West,9.2,-,N/A,,Clear,280,2012-11-20 01:55:00
8:15 PM,44.4,37.9,78,30.06,10.0,West,9.2,-,N/A,,Clear,280,2012-11-20 02:15:00
8:35 PM,43.7,37.4,78,30.06,10.0,WNW,8.1,-,N/A,,Clear,290,2012-11-20 02:35:00
9:15 PM,41.7,36.7,82,30.06,10.0,West,9.2,-,N/A,,Clear,280,2012-11-20 03:15:00
9:35 PM,41.2,36.5,83,30.06,7.0,West,8.1,-,N/A,,Clear,280,2012-11-20 03:35:00
9:55 PM,40.8,36.1,83,30.06,7.0,West,8.1,-,N/A,,Clear,280,2012-11-20 03:55:00
10:15 PM,40.3,36.3,86,30.06,7.0,WNW,9.2,-,N/A,,Clear,290,2012-11-20 04:15:00
10:35 PM,39.9,36.1,86,30.05,7.0,WNW,8.1,-,N/A,,Clear,290,2012-11-20 04:35:00
10:55 PM,42.4,37.6,83,30.05,10.0,WNW,8.1,-,N/A,,Clear,300,2012-11-20 04:55:00
11:15 PM,43.0,37.4,81,30.05,10.0,WNW,6.9,-,N/A,,Clear,290,2012-11-20 05:15:00
11:35 PM,40.5,36.5,86,30.06,7.0,West,4.6,-,N/A,,Clear,270,2012-11-20 05:35:00
11:55 PM,41.0,37.2,86,30.07,7.0,WNW,5.8,-,N/A,,Clear,290,2012-11-20 05:55:00